Weather in Bratslavka

Russia / Orenburg Oblast     51°40′17″N   60°16′20″E
temp.,
°C
wind,
m/s
gust,
m/s
humid.,
%
clouds,
%
prec.,
mm/h
press.,
hPa
HPBL,
m
3 march, wed
wed323:00−13wsw8169396 0.1 1015432
02:00−11sw81594100 0.3 1013530
05:00−8sw91692100 0.4 1011559
08:00−6sw91594100 0.5 1009711
11:00−4sw101594100 1.2 1008900
14:00−3sw101494100 0.6 1008999
17:00−3sw91494100 1.3 1007954
20:00−3sw81495100 0.6 1006727
4 march, thu
thu423:00−3sw81495100 1.1 1005665
02:00−3sw71296100 0.5 1003529
05:00−3sw71296100 1.4 1003548
08:00−6w61290100 0.3 1004322
11:00−9w7139164 0.3 1007450
14:00−8w7128856 0.0 1008584
17:00−8w7138869 0.0 1010540
20:00−11wsw7149345 0.0 1011379
5 march, fri
fri523:00−10sw8189369 0.1 1012552
02:00−6sw122089100 0.1 1009827
05:00−4wsw111990100 0.2 1009839
08:00−4wsw121891100 0.1 1010953
11:00−3wsw111789100 0.3 1012932
14:00−2sw111788100 0.1 1011970
17:00−1sw121886100 0.1 10111046
20:00−1sw111893100 0.1 10111010
6 march, sat
sat623:000sw121892100 0.3 10101051
02:00−1sw121894100 0.5 1009913
05:000wsw101697100 2.0 10101047
08:000w71297100 0.6 1011614
11:00−4nnw3588100 1.0 1014260
14:00−5n127797 0.0 1015172
17:00−5ese238499 0.0 101497
20:00−6ese6996100 1.0 1012266
7 march, sun
sun723:000sw101697100 3.8 1009956
02:00−1sw121896100 0.8 1005881
05:000sw101696100 1.6 1004838
08:00−2w81296100 1.9 1005553
11:00−6wnw61086100 2.0 1007432
14:00−7wnw6984100 0.0 1009636
17:00−8w5985100 0.0 1011553
20:00−14w5108736 0.0 1013190